RH
82 59 43 40 44 43 36 30 25 21 18 15 14 14 17 28 46 58 58 54 52 47 46 53 62 79 84 54 25 23 26 28 37 43 45 43 39 37 33 29 24 19 15 13 11 11 10 10 11 12 13 14 16 18 22 25 27 28 28 27 27 27 25 24 23 23 23 23 22 22 21 21 21 20 19 19 18 17 17 16 15 15 15 14 14
78 56 45 43 44 41 37 34 30 25 21 15 11 11 18 28 37 43 47 48 47 41 36 39 52 69 70 50 33 31 33 41 52 55 53 48 44 41 38 36 33 29 25 23 22 21 20 19 19 20 21 22 23 25 27 28 29 29 31 31 31 32 32 30 28 27 26 25 25 24 23 23 22 22 22 21 21 21 20 20 19 19 18 17 17
75 59 51 49 46 43 39 37 34 30 25 19 12 10 14 19 20 22 27 35 41 39 31 29 41 56 60 55 48 44 45 52 61 64 62 57 52 48 45 42 41 39 37 35 33 31 29 28 27 27 29 31 32 33 34 34 35 35 36 36 36 37 37 36 34 33 31 29 28 27 26 25 24 24 24 24 24 24 23 23 23 22 22 21 20
73 63 57 54 50 47 45 42 38 33 28 22 15 9 9 10 11 15 21 26 33 37 35 31 34 43 50 52 52 51 53 55 57 64 69 67 60 55 52 49 47 46 46 45 43 41 38 35 34 34 36 39 40 40 39 38 39 42 45 47 48 47 44 42 39 36 35 33 32 31 30 29 29 29 30 30 30 29 29 28 27 26 26 25 24
71 65 61 58 56 54 51 46 41 37 33 26 18 12 11 11 11 16 21 23 23 26 33 35 35 40 45 49 51 52 53 56 59 64 70 72 68 62 56 53 50 47 47 47 48 47 46 44 43 42 42 43 43 42 42 44 49 55 59 59 59 58 55 50 45 40 37 37 36 35 34 33 33 33 33 34 34 34 34 33 32 30 28 26 25
71 66 63 61 57 53 49 45 41 38 35 31 23 16 13 13 13 13 16 17 16 14 17 21 23 24 28 37 49 57 60 63 66 69 72 74 73 68 62 57 55 52 48 47 47 47 48 48 49 50 49 47 46 46 47 54 63 67 66 64 63 61 58 54 50 45 42 41 41 40 39 37 37 38 39 40 39 39 39 38 37 36 33 31 28
72 68 64 58 51 43 39 39 41 42 39 33 27 22 18 16 15 15 15 14 13 13 15 18 18 15 14 17 28 48 67 77 79 81 82 79 76 73 68 63 62 60 56 53 51 49 48 48 48 49 50 49 50 52 54 59 66 69 70 69 66 61 58 55 52 50 48 47 45 45 45 43 42 42 42 42 41 40 41 41 40 39 38 36 34
76 69 60 51 42 34 29 29 35 44 47 40 33 28 23 18 16 17 19 18 16 15 16 17 17 16 16 13 12 23 42 56 70 85 92 93 88 80 74 71 68 66 64 59 56 54 53 52 51 51 52 53 55 58 60 64 67 71 75 74 70 66 63 59 56 55 54 53 52 51 50 48 47 46 44 43 43 42 42 43 44 44 43 39 36
73 64 54 45 39 32 26 22 21 29 39 42 41 37 33 30 28 28 29 30 27 22 19 18 17 15 16 16 14 13 17 32 59 82 92 98 99 92 84 80 76 73 71 67 64 62 62 61 61 60 59 58 59 59 60 61 62 64 66 64 60 59 59 59 58 59 59 59 59 58 55 52 50 50 49 48 47 47 46 46 46 46 47 45 41
60 58 54 50 45 37 30 23 17 16 19 23 27 30 32 34 35 37 40 43 42 36 28 22 19 17 16 15 16 19 27 43 64 80 84 88 96 99 94 87 83 79 76 76 75 72 72 73 74 75 73 69 66 62 59 58 58 59 60 57 53 50 51 52 52 53 56 60 62 63 62 60 58 57 57 56 55 55 54 53 51 50 48 48 45
40 43 45 46 44 40 34 28 24 20 17 15 15 15 17 18 21 24 28 34 37 35 29 24 20 18 16 16 16 18 25 30 40 61 75 73 78 93 97 90 87 86 83 82 78 73 76 80 80 80 81 78 73 66 61 61 59 56 54 51 46 42 40 38 35 34 37 41 44 48 50 51 52 53 55 57 57 57 56 55 53 50 47 44 41
21 23 25 26 27 27 26 24 22 20 18 17 15 14 13 12 12 13 15 17 19 19 19 18 17 16 16 17 17 18 20 18 24 51 73 67 60 76 96 99 97 96 94 89 84 82 84 84 80 77 76 75 73 68 63 63 60 52 43 35 30 26 24 22 19 18 18 18 19 21 22 23 25 26 29 31 32 33 33 32 31 29 28 26 24
15 15 15 16 16 16 17 17 17 17 16 16 15 15 15 13 12 12 12 12 12 13 14 14 14 15 17 18 19 20 22 20 21 35 55 59 51 58 83 100 99 99 101 97 92 92 92 89 85 81 79 76 70 62 56 53 48 41 33 27 23 21 20 19 18 16 15 14 13 12 12 12 11 11 11 11 11 11 12 12 12 11 11 11 11
20 19 18 18 17 18 18 18 18 18 18 18 17 17 16 15 14 13 14 15 15 14 13 13 12 12 14 17 18 19 23 26 28 31 41 51 44 38 62 92 99 99 100 94 88 89 91 92 90 85 83 79 69 58 51 47 43 38 33 29 26 23 22 20 19 18 17 16 15 14 14 13 12 12 11 10 10 10 9 9 9 8 8 8 8
26 25 24 23 22 22 22 22 22 22 21 21 21 20 19 18 17 15 16 18 20 20 19 17 16 14 14 16 15 17 23 29 33 34 36 45 41 26 40 77 95 97 92 86 87 92 94 96 96 92 88 83 74 66 59 52 46 40 33 29 26 24 22 21 19 19 17 17 16 16 15 15 14 14 13 13 13 12 11 10 10 9 9 9 8
36 34 32 30 28 26 26 26 26 25 25 24 24 24 23 22 20 19 20 21 23 27 27 24 23 20 17 17 17 21 28 31 35 35 34 42 44 32 39 68 85 85 84 87 95 102 99 94 89 84 79 73 67 62 57 51 44 36 30 29 27 26 24 23 21 20 19 18 18 17 17 17 16 16 16 15 15 14 13 13 12 11 11 10 9
41 38 36 34 31 30 31 32 32 30 29 27 26 26 26 25 22 21 23 25 27 29 27 25 28 29 27 26 25 27 35 40 43 47 47 46 44 37 39 55 69 79 90 98 101 99 90 79 73 70 66 63 59 56 53 50 42 36 36 37 35 33 31 27 24 23 21 21 20 19 19 18 18 18 17 17 16 16 15 14 13 13 12 11 10
39 37 35 33 33 34 34 35 35 33 31 29 27 27 27 25 23 24 27 28 25 21 20 23 31 35 36 39 39 36 39 43 47 56 61 59 57 53 46 47 64 87 101 100 93 84 74 68 68 69 67 64 60 56 54 52 46 40 43 46 46 44 40 32 26 24 22 22 21 20 20 20 19 19 18 18 17 16 16 15 14 13 12 11 10
40 39 38 36 36 36 36 36 34 32 31 29 27 26 25 23 23 28 34 33 22 15 21 33 45 54 58 61 61 54 45 44 53 67 74 70 69 72 68 62 68 82 89 84 75 67 64 66 70 72 73 71 67 62 62 61 54 48 49 54 56 52 42 31 25 24 23 23 23 22 21 21 20 19 18 17 16 15 15 14 12 11 10 9 8
43 41 40 39 38 37 35 34 33 31 29 27 25 24 23 22 22 26 32 30 18 17 32 44 52 71 85 81 75 71 62 57 63 74 80 77 73 73 74 72 72 73 71 67 62 57 60 68 76 81 83 81 78 74 73 69 63 59 61 64 62 51 36 26 24 24 24 24 23 22 21 19 18 16 15 14 13 13 12 11 10 9 8 7 6
41 39 38 36 35 34 32 30 28 26 24 21 20 19 18 18 18 18 21 22 13 21 54 74 71 78 91 86 79 78 73 68 69 73 77 80 77 74 70 68 71 73 70 64 61 59 61 71 83 91 94 93 91 87 83 79 76 75 74 69 57 42 30 26 26 26 25 24 22 20 18 16 14 12 11 10 9 9 9 8 8 7 6 6 6
37 34 32 29 26 24 22 20 18 16 14 14 13 13 12 12 13 12 14 15 8 13 48 84 95 96 97 93 90 87 79 74 77 78 79 81 82 79 74 71 75 80 79 73 69 67 70 80 91 97 98 100 100 97 93 91 86 78 69 57 44 33 28 27 26 25 23 21 19 16 13 12 10 9 8 8 7 7 7 7 7 7 7 6 6
26 23 20 18 15 14 12 11 10 10 12 14 14 14 13 12 13 13 12 13 11 8 17 42 69 90 99 98 95 92 87 88 91 91 90 88 82 76 74 77 85 90 87 82 78 76 81 89 96 99 100 101 101 99 95 88 77 65 53 43 35 30 28 27 24 22 20 16 13 12 10 8 7 7 6 7 6 7 8 9 9 8 7 6 5
28 27 26 25 24 25 24 24 24 24 25 27 28 30 29 27 26 25 21 19 19 17 14 15 23 41 64 81 91 97 97 93 90 89 86 81 77 74 76 82 90 92 87 80 78 80 84 87 91 95 98 98 96 91 84 74 63 52 41 35 32 29 27 24 20 17 14 11 10 9 7 6 6 6 6 6 7 8 9 9 9 7 6 6 6
51 49 48 48 46 45 45 44 45 46 47 48 50 51 52 51 48 45 41 37 32 28 30 31 26 25 35 49 68 86 95 96 95 91 82 78 78 78 80 86 89 85 77 70 69 74 79 81 85 89 91 90 86 80 73 66 56 44 35 32 30 27 23 19 15 12 10 8 7 7 6 6 6 6 7 8 9 9 8 8 8 7 6 7 9
53 50 48 46 43 42 40 39 39 40 43 47 52 56 59 62 62 60 57 54 51 46 43 44 44 44 44 47 55 68 79 89 95 87 79 87 95 90 85 90 88 81 81 83 84 84 83 83 86 88 87 85 80 73 69 63 50 38 32 29 25 21 17 14 11 9 8 7 7 8 8 8 9 10 11 11 10 10 9 8 8 9 10 12 12
32 30 27 25 23 22 22 21 21 22 24 27 32 38 44 49 54 58 59 59 59 58 57 61 63 61 58 59 61 64 68 75 77 70 69 86 101 98 94 97 94 85 87 96 99 97 93 93 95 94 89 83 77 71 65 57 44 33 27 23 19 16 13 10 9 9 9 9 10 10 11 13 14 14 14 13 12 12 11 11 12 12 13 12 11
13 13 12 11 11 11 11 12 12 12 13 14 15 17 22 27 32 38 45 51 53 53 59 74 82 77 72 71 71 76 84 88 89 88 88 94 102 102 99 100 98 92 91 96 101 101 100 101 102 99 92 86 78 69 60 48 36 26 20 16 14 12 10 10 11 10 11 12 13 15 17 18 17 15 14 14 13 14 14 14 13 12 11 11 10
12 11 11 10 10 11 10 10 11 11 11 12 12 11 12 14 17 20 24 32 38 41 46 57 66 71 80 86 87 91 98 99 98 101 102 101 102 102 99 98 99 100 99 100 101 100 100 101 99 93 86 77 67 56 46 36 26 19 14 11 11 11 12 13 13 13 15 18 19 20 20 19 17 16 16 14 14 14 13 12 11 11 10 9 7
11 11 11 10 10 10 10 10 10 11 10 10 11 11 11 11 13 14 15 18 22 28 34 40 52 73 94 99 95 96 102 102 101 102 103 101 101 100 99 101 101 100 100 100 97 95 91 85 78 70 63 58 50 39 30 23 17 14 12 10 12 15 16 16 16 19 22 24 23 21 19 17 17 16 15 14 14 13 11 11 11 10 8 8 12
11 10 10 10 9 9 9 9 8 8 9 9 9 9 10 11 11 12 14 15 15 19 25 28 40 69 96 103 99 100 101 100 100 101 99 98 100 99 100 101 100 96 94 91 87 81 75 68 62 57 52 45 36 25 18 15 14 12 12 14 17 19 19 20 24 27 27 25 22 19 17 17 16 14 14 14 13 12 12 11 9 8 13 24 39
12 13 13 14 14 13 12 11 11 10 9 9 9 8 8 9 9 10 11 13 14 16 19 21 26 46 74 93 100 103 101 100 102 103 100 99 101 101 100 100 99 97 94 90 85 82 78 72 64 56 45 36 28 22 19 16 15 15 17 19 20 21 25 30 32 30 26 21 18 17 17 16 15 15 15 14 13 13 11 8 11 22 40 57 70
28 29 30 30 30 30 28 25 23 22 20 18 16 15 12 9 9 9 8 11 14 15 16 19 21 28 49 74 89 96 99 102 100 98 99 100 99 99 100 100 100 99 99 99 97 89 76 63 52 41 33 28 26 24 21 19 21 23 23 23 25 30 34 34 30 25 21 18 17 18 18 17 16 16 15 15 14 12 9 15 33 53 69 79 84
41 40 40 40 40 41 42 42 40 39 38 35 30 28 27 23 19 13 8 8 10 12 15 18 18 19 27 43 61 77 91 102 104 101 102 104 103 102 102 100 100 102 100 92 79 63 48 39 34 30 25 23 23 22 23 25 27 27 27 30 35 38 36 30 24 20 18 19 20 20 18 17 17 17 18 17 13 12 21 42 64 77 84 89 92
43 44 41 36 33 31 33 38 42 45 49 49 46 43 44 46 42 31 19 13 14 17 16 12 21 37 41 37 40 50 61 72 82 87 90 94 95 94 94 93 91 85 73 58 47 42 39 34 29 24 21 19 21 23 27 28 29 31 36 41 40 36 30 23 18 18 21 23 22 19 17 18 20 20 19 15 15 26 49 70 82 86 90 95 96
53 51 44 36 30 26 25 24 26 33 41 51 57 54 51 59 65 55 36 24 23 29 26 15 24 56 77 75 67 64 61 58 58 60 69 79 80 74 70 70 64 52 43 43 47 46 38 26 20 20 22 22 24 26 28 29 34 39 41 39 34 28 22 18 19 24 26 22 18 17 19 22 23 21 18 19 31 54 76 86 88 90 94 96 96
55 45 39 34 28 25 23 19 19 21 25 42 63 66 58 67 81 74 52 34 27 27 28 21 18 37 70 93 97 94 92 88 81 77 83 91 93 85 72 60 53 52 54 56 52 37 21 14 15 18 20 22 26 29 30 33 38 38 34 31 28 21 18 21 29 30 24 17 16 21 24 24 23 21 21 33 57 78 89 92 92 94 96 97 96
47 40 37 33 26 23 18 14 15 13 15 38 71 75 63 73 92 85 59 40 28 20 21 26 21 23 52 90 104 100 99 100 97 97 100 101 102 98 81 64 64 68 63 52 40 25 15 15 16 14 16 22 26 29 32 34 34 31 29 27 21 17 24 35 35 24 15 15 20 25 26 25 24 21 23 45 77 93 94 95 97 96 96 97 95
47 44 39 32 27 21 13 16 28 32 36 63 89 83 67 80 101 92 60 38 29 23 24 30 25 19 42 83 103 100 98 100 100 100 100 100 102 100 87 76 77 75 64 55 45 28 16 14 14 13 17 22 25 30 33 31 28 28 26 20 18 28 41 41 25 13 14 20 24 26 27 27 25 21 22 45 82 101 98 96 98 98 97 98 98
51 48 40 32 26 16 18 44 73 80 82 95 97 79 72 90 103 87 56 33 28 31 38 46 43 28 35 70 99 102 98 100 103 101 99 100 103 101 96 93 87 78 74 70 50 23 11 13 14 13 16 20 25 31 30 27 27 26 19 18 33 50 48 28 12 12 19 23 24 29 30 28 27 23 19 33 68 97 102 98 98 100 100 100 100
56 50 40 33 24 15 27 68 100 102 99 99 88 75 86 102 96 70 43 30 30 32 39 54 64 54 43 58 87 104 103 98 99 100 100 100 100 99 101 100 91 84 85 74 40 15 12 15 13 13 16 21 27 29 27 26 25 19 18 37 59 58 33 12 10 17 20 22 26 31 30 29 29 26 19 20 41 73 96 103 101 100 101 102 101
59 51 40 34 26 14 27 71 104 103 93 89 85 86 91 85 65 45 36 37 41 40 38 52 77 88 75 60 64 85 101 103 102 103 103 103 103 101 102 101 95 89 83 60 27 12 14 14 11 14 18 21 25 26 23 22 20 22 41 68 69 41 14 9 15 18 19 22 26 27 29 32 31 27 23 18 20 38 69 93 102 103 102 103 102
57 50 42 41 33 16 20 58 92 98 93 92 93 87 70 51 43 46 46 46 50 54 52 51 63 83 87 66 47 57 80 92 93 93 89 87 86 86 90 99 100 88 67 41 19 13 14 13 13 16 18 21 23 22 21 24 31 49 74 78 50 18 9 14 16 16 19 21 22 24 28 32 32 29 27 23 16 17 34 61 85 99 102 101 100
58 53 46 45 41 26 23 42 69 87 97 101 92 69 44 38 52 60 53 48 60 77 83 72 57 56 63 59 49 56 69 70 66 72 79 79 72 64 65 72 70 52 32 20 14 14 15 14 15 17 19 20 22 24 31 43 58 75 79 56 23 10 13 14 13 16 18 17 18 21 24 28 32 33 30 26 21 15 15 27 51 77 91 94 94
61 57 52 50 48 38 29 35 56 81 100 103 89 63 43 45 60 66 59 57 65 76 84 82 66 50 49 56 65 78 85 75 64 70 88 96 89 76 67 62 53 40 28 20 16 15 16 16 16 18 20 25 33 43 55 67 75 75 58 30 12 11 14 12 13 17 16 14 16 19 20 24 31 33 32 29 25 19 13 13 24 46 70 85 88
64 64 61 57 54 49 39 33 43 67 90 99 95 83 69 64 68 72 73 77 79 77 74 72 63 54 60 77 87 86 83 76 67 69 84 98 101 96 89 80 70 61 46 29 19 19 20 19 22 28 37 49 61 70 75 78 73 57 34 17 12 13 12 12 14 15 14 15 16 15 16 22 27 30 33 33 29 23 18 13 11 21 45 72 86
68 71 71 67 61 59 53 43 37 45 64 79 89 95 97 96 95 95 97 99 96 85 73 68 64 58 61 77 88 84 78 79 83 88 97 103 99 88 77 69 68 70 62 45 34 33 32 35 45 57 69 79 82 79 77 74 60 39 22 14 13 13 12 13 14 14 14 16 15 14 16 19 22 26 32 34 31 28 23 18 12 10 20 47 76
69 73 77 76 72 70 69 62 50 43 46 54 63 71 78 81 83 86 85 80 73 68 68 78 88 79 62 63 80 91 93 96 100 100 99 94 83 72 67 69 78 87 84 69 58 55 57 65 78 89 92 88 80 73 71 65 47 29 20 16 14 13 13 13 13 14 15 15 15 15 16 17 18 23 28 32 33 31 25 21 18 12 8 20 50
71 74 77 79 80 81 83 83 76 65 58 58 63 70 74 74 68 61 52 49 56 71 84 95 103 98 84 80 89 98 100 102 102 96 91 89 88 87 89 92 97 100 96 87 82 83 87 93 98 98 90 79 71 68 67 55 38 26 22 18 15 15 14 13 13 15 15 15 15 16 16 17 18 19 22 27 31 32 28 24 20 16 10 8 22
71 75 79 83 85 86 88 92 94 90 82 78 80 86 91 92 83 70 63 66 79 94 100 99 98 98 95 95 99 101 100 97 91 85 86 93 99 99 99 100 101 101 99 96 97 99 100 99 96 89 79 73 71 69 61 46 33 28 26 22 19 18 16 15 15 15 15 16 17 17 17 18 18 17 19 23 27 30 30 27 22 19 16 11 8
73 74 78 82 86 89 91 93 97 98 95 91 87 85 86 86 83 78 76 79 81 82 82 82 81 79 77 80 87 91 89 84 82 84 91 98 99 99 100 101 102 101 100 99 100 101 99 94 88 82 78 76 72 63 52 42 36 33 29 25 23 21 19 17 18 17 16 17 18 18 18 19 19 18 19 21 24 28 30 29 25 20 18 15 10
Wind_Speed
24 23 22 21 20 19 17 16 14 13 12 12 12 13 13 13 15 16 16 16 17 18 17 16 17 20 21 18 15 13 13 13 13 13 14 15 16 17 18 19 19 19 19 19 19 18 18 18 18 17 17 16 15 15 14 14 13 13 14 14 14 15 15 15 15 15 15 15 15 15 15 15 15 15 15 15 15 15 16 16 16 16 16 17 18
24 23 23 22 22 20 18 15 14 13 13 12 12 12 13 13 14 15 15 15 16 17 16 15 14 15 17 17 16 15 15 15 15 15 15 16 17 18 19 20 20 20 20 20 19 19 19 18 18 18 17 17 17 16 16 15 15 15 15 15 15 16 16 16 16 17 17 17 17 16 16 16 16 16 16 16 16 17 17 18 18 19 19 19 19
25 23 23 24 23 21 19 16 14 14 14 14 13 13 13 13 14 15 15 14 15 15 15 14 14 14 16 17 17 17 18 18 18 16 15 16 17 19 20 21 21 21 21 21 21 21 20 19 18 18 17 17 17 16 16 15 15 15 15 15 16 17 17 17 18 18 18 19 19 19 19 19 18 18 19 19 19 20 20 21 21 22 22 22 22
24 23 23 22 21 20 19 17 16 15 15 15 15 14 14 14 14 15 15 15 14 13 13 13 14 16 17 18 19 20 21 22 22 20 18 18 19 20 21 22 22 23 23 23 23 23 22 21 20 20 19 18 18 18 17 17 17 17 17 17 17 18 18 19 19 20 20 20 20 20 20 21 21 21 21 22 22 23 23 24 24 25 25 26 26
25 23 22 21 20 19 19 19 18 17 17 17 17 16 15 15 15 16 16 16 15 14 13 13 14 15 17 19 21 22 23 24 25 24 23 22 22 22 23 23 24 24 24 24 24 24 24 23 23 22 22 21 21 21 20 19 19 19 19 19 19 20 20 21 21 22 22 22 22 22 22 22 22 23 23 24 24 24 25 25 26 27 28 28 29
26 24 22 21 20 19 20 20 20 19 19 19 19 18 17 16 16 17 17 18 17 15 14 13 14 15 17 18 20 21 23 24 25 26 26 25 25 25 24 25 25 25 26 26 26 26 26 25 25 24 24 24 24 23 22 22 21 21 21 21 21 21 22 23 24 25 25 25 24 24 24 24 25 25 26 26 26 26 26 27 28 28 29 30 30
26 25 24 23 21 20 19 19 20 20 21 21 21 22 21 20 19 18 18 19 18 17 17 17 18 19 20 20 20 21 22 23 25 26 27 28 28 28 27 26 26 27 27 27 27 28 28 27 27 26 26 26 26 26 25 24 23 23 22 22 23 23 24 25 26 27 28 28 27 27 27 28 29 30 30 30 30 30 31 32 32 32 32 32 32
27 26 25 24 23 21 20 19 19 19 21 22 23 23 24 23 22 20 20 20 21 21 22 23 24 25 25 24 23 23 23 24 24 26 27 28 30 30 29 28 29 29 29 29 29 29 29 29 28 28 27 27 28 28 27 26 26 25 24 24 25 26 27 28 29 29 30 31 31 31 31 32 33 34 34 34 35 36 37 37 38 37 37 37 36
28 28 27 26 25 24 23 21 20 20 21 23 24 25 25 26 26 25 25 26 27 27 28 29 29 30 29 29 28 27 26 26 25 25 26 27 30 31 30 30 31 31 31 31 31 31 30 29 29 29 29 29 29 30 30 30 29 29 29 29 30 30 31 31 32 33 33 34 34 34 35 36 37 37 38 39 40 41 42 41 41 41 41 41 42
29 29 29 29 29 28 27 26 24 24 24 25 26 27 28 29 30 31 32 33 33 33 33 34 34 33 33 33 32 30 29 29 28 28 27 27 27 29 30 30 30 32 33 33 33 33 32 31 30 30 30 30 30 31 32 32 31 31 32 33 34 34 34 35 35 36 36 36 36 37 38 39 40 41 41 42 43 44 44 44 45 45 46 46 48
30 30 31 31 32 32 31 30 30 29 29 29 29 30 31 32 33 34 35 36 36 37 38 38 37 37 36 36 35 33 32 32 32 31 30 28 28 29 31 31 30 31 33 33 33 34 33 32 32 31 30 30 31 32 32 32 33 33 34 35 36 37 37 38 38 38 39 39 40 41 41 43 44 45 45 46 47 47 48 49 50 51 52 53 54
32 33 33 34 34 34 34 34 34 34 34 34 34 34 35 35 36 37 38 39 39 40 40 41 41 40 39 38 38 37 36 35 34 33 33 32 30 30 31 32 32 33 34 34 35 35 34 35 35 34 33 33 33 34 35 36 37 37 37 37 37 37 38 39 39 40 40 41 42 43 44 46 47 48 48 50 51 51 53 54 55 56 56 57 57
36 37 37 37 37 37 37 37 37 37 37 38 38 38 38 39 39 40 40 41 42 43 43 44 44 44 42 41 41 40 39 37 36 37 37 35 33 32 32 34 35 34 34 34 35 35 35 37 38 37 37 36 35 36 37 38 39 39 38 39 39 39 39 40 41 41 42 42 44 45 45 46 47 47 48 49 50 51 52 54 55 55 56 56 56
40 41 40 40 40 40 40 40 40 40 40 40 40 40 40 40 40 41 42 43 44 45 46 47 47 47 46 45 44 43 41 38 38 40 40 38 36 35 35 34 34 35 35 35 36 38 39 40 39 39 39 37 36 36 37 38 39 39 40 40 40 40 40 40 41 42 43 44 44 45 45 45 46 47 47 48 49 50 51 52 53 54 55 56 56
45 45 43 43 42 43 43 43 42 42 42 41 41 41 41 41 41 41 42 43 44 45 47 48 49 49 49 48 48 47 44 41 41 41 42 40 38 37 36 34 33 37 40 41 41 41 41 40 40 40 39 39 38 39 39 40 40 40 39 38 38 38 39 40 41 42 43 44 44 45 45 45 46 47 48 49 49 50 51 52 53 55 55 56 57
47 46 46 46 46 45 45 45 45 44 44 43 42 42 43 43 43 43 43 44 45 46 47 48 48 49 49 49 49 48 46 44 42 43 43 42 40 38 36 35 36 40 44 44 43 42 41 41 41 41 42 42 42 42 42 41 40 39 38 37 37 37 38 39 40 41 42 44 44 45 45 46 47 48 48 50 51 51 52 53 54 55 56 57 57
51 52 52 51 50 49 48 47 47 46 46 45 45 45 46 46 46 46 46 47 48 48 48 49 50 50 49 49 48 48 47 45 43 43 43 43 42 40 40 40 41 43 44 42 41 41 42 42 42 42 42 42 42 43 43 42 41 40 39 39 38 39 40 41 42 43 44 45 45 46 47 47 48 49 50 51 52 53 54 55 56 57 58 58 59
57 57 56 55 54 53 52 50 50 49 49 49 49 49 49 49 49 49 49 49 50 50 50 50 50 50 50 49 49 49 48 47 45 44 44 44 43 43 42 43 43 44 44 42 41 42 43 43 42 42 42 42 43 44 44 43 43 42 42 42 42 43 44 45 46 46 46 46 46 47 48 49 50 51 51 52 54 55 55 56 57 58 59 59 60
59 59 59 58 58 57 56 55 54 54 53 53 53 53 53 52 52 51 50 50 50 50 50 50 50 50 49 49 49 49 48 47 46 46 45 45 45 43 42 43 44 45 46 46 46 47 47 46 45 44 44 44 45 45 45 45 45 45 45 46 47 47 48 48 48 47 47 47 47 48 49 49 50 51 52 53 54 56 57 57 58 59 59 59 60
61 61 61 61 61 61 61 60 59 58 58 57 57 56 55 55 53 52 52 51 50 50 50 50 49 48 46 46 46 47 47 46 47 47 46 47 47 46 45 45 46 47 48 50 50 50 50 48 47 46 46 46 46 46 46 46 47 47 48 49 49 49 50 49 48 48 47 48 48 49 49 50 50 51 52 53 54 55 56 57 58 59 59 59 60
63 64 64 65 65 66 65 65 63 62 61 60 59 58 57 56 55 54 54 53 51 50 49 49 49 48 46 45 45 45 45 45 46 47 47 47 48 48 48 48 48 49 50 50 50 50 50 49 48 47 46 46 47 47 48 48 49 49 49 49 50 51 51 49 48 48 48 49 49 50 50 50 51 51 52 53 54 55 56 57 57 58 59 60 60
67 67 67 68 68 68 68 67 66 65 63 62 61 60 58 57 56 55 55 54 52 51 50 50 49 48 46 46 46 46 46 46 46 46 46 46 46 46 46 47 47 47 47 47 48 49 49 48 48 47 47 47 48 48 48 48 48 49 50 51 53 52 51 49 48 49 49 49 50 50 50 51 51 52 53 53 54 55 56 56 57 58 59 59 60
69 69 69 69 69 69 68 68 67 65 63 62 61 61 60 58 57 56 54 53 53 53 53 54 53 50 48 46 46 47 48 48 47 45 44 44 44 44 45 46 46 46 45 45 46 46 47 48 48 48 48 48 48 48 47 47 48 50 52 53 52 51 50 49 49 49 49 50 50 51 51 51 52 53 53 53 54 55 55 56 56 57 58 58 58
69 69 69 69 69 69 68 68 68 67 65 64 63 62 61 61 59 58 56 54 53 53 54 55 56 56 53 50 47 45 45 46 45 43 43 44 45 45 46 47 47 46 44 44 44 45 47 48 49 49 49 48 48 47 47 48 50 51 52 51 51 51 50 50 49 49 49 50 51 51 52 52 52 53 53 53 54 54 55 55 55 55 56 56 57
67 67 67 68 68 68 67 66 66 66 65 65 64 62 62 61 60 59 58 56 54 54 53 54 55 56 57 55 53 49 46 45 44 43 44 45 47 47 47 47 47 46 45 45 45 46 48 48 48 49 48 48 47 47 49 51 52 53 52 52 52 51 50 49 49 49 50 50 51 52 52 52 52 53 53 53 53 53 53 53 53 53 54 54 55
65 65 65 66 66 66 66 65 64 63 63 62 62 61 60 59 59 58 58 56 55 55 54 54 55 55 56 56 55 54 52 50 49 48 48 48 48 48 48 48 47 47 47 48 48 49 49 49 49 48 48 48 49 50 52 54 55 55 54 53 52 50 50 49 49 50 50 51 51 51 52 52 51 51 51 50 50 51 51 51 51 52 52 53 53
64 64 64 64 65 65 65 65 65 64 63 62 61 60 60 59 59 58 57 56 55 54 53 52 53 54 54 53 52 51 51 51 51 52 52 52 52 51 49 48 48 48 48 50 51 52 52 51 50 50 50 51 52 54 56 57 57 56 54 52 51 50 50 50 50 50 51 51 51 50 50 49 49 48 48 47 48 48 49 49 50 51 52 53 53
60 61 61 61 61 62 63 63 63 64 64 64 64 62 61 61 61 59 58 57 56 54 51 50 51 51 49 47 47 47 49 50 50 51 53 54 54 53 50 49 50 50 51 52 52 52 53 52 51 51 52 54 55 57 59 59 58 55 53 51 51 50 50 50 51 51 50 49 48 47 46 45 45 45 45 45 46 47 48 49 49 51 52 53 53
57 58 59 59 60 60 61 62 62 62 63 63 64 63 61 61 61 61 60 59 59 56 53 51 50 48 45 44 45 46 48 49 49 48 49 50 52 53 53 52 51 50 50 50 51 51 52 52 52 53 55 56 58 60 60 59 56 53 52 51 50 50 50 51 50 49 47 45 44 42 42 41 42 42 43 44 45 46 47 48 49 50 51 51 52
58 59 60 60 61 61 62 62 63 64 64 64 64 63 62 61 61 61 60 60 59 58 56 53 49 45 43 44 45 44 44 46 47 46 45 47 49 50 52 53 53 52 51 50 51 51 52 53 54 56 57 59 61 60 58 56 53 52 51 50 50 50 50 49 47 45 42 40 39 38 38 39 40 41 42 43 44 46 47 48 49 49 50 51 52
57 57 58 60 61 61 62 63 63 64 65 65 66 65 64 63 63 61 60 59 59 58 58 56 54 52 52 51 49 46 45 46 48 46 44 44 46 47 48 49 50 50 50 51 51 52 53 54 56 58 60 61 60 58 55 53 51 50 50 49 49 49 47 45 42 39 37 36 36 36 37 38 38 39 40 41 43 44 46 47 48 49 49 48 44
48 49 49 51 52 54 55 57 58 60 61 62 63 64 64 64 65 64 62 60 59 59 59 58 57 58 60 60 58 54 49 46 48 49 47 44 44 44 44 44 45 46 46 47 49 50 52 55 58 60 60 59 57 54 52 50 49 49 48 47 46 44 41 38 36 34 33 34 34 35 35 35 35 36 38 40 42 44 45 46 47 45 42 37 32
38 38 39 41 42 44 46 47 48 49 51 53 55 58 59 60 62 63 63 62 61 60 59 58 58 59 60 63 64 61 55 48 47 51 53 52 51 49 47 46 46 45 46 47 49 52 56 58 59 58 56 53 51 50 49 47 47 45 44 43 40 37 35 33 32 32 32 33 32 31 30 31 32 34 37 39 41 43 45 44 42 37 31 27 25
29 30 31 33 35 38 40 42 42 43 43 45 46 49 52 54 55 57 60 61 61 61 60 59 58 58 59 61 62 63 60 56 52 51 53 55 56 55 54 53 52 51 52 54 57 58 58 57 54 51 48 46 45 45 44 43 42 41 39 37 35 32 31 30 30 31 31 30 28 26 26 29 31 33 36 39 42 43 43 39 33 27 23 22 21
23 25 27 29 31 32 35 37 39 41 41 41 41 42 45 48 49 50 51 54 55 57 59 60 57 54 55 57 57 58 60 60 57 55 55 57 59 60 60 59 59 59 58 57 55 52 47 44 43 42 42 42 42 41 40 38 37 36 34 32 31 30 29 29 29 29 27 24 22 23 25 28 30 32 36 39 41 41 37 30 25 22 20 19 19
25 27 29 30 32 33 34 36 37 39 40 41 40 39 41 44 45 45 44 45 47 50 54 57 57 54 51 49 48 48 50 51 50 51 53 55 55 57 58 57 56 54 52 49 44 39 36 35 35 35 36 37 38 37 36 34 33 32 30 29 29 28 28 28 26 24 21 19 20 22 24 27 29 32 36 39 39 36 29 23 20 19 18 17 18
27 29 30 32 34 36 37 38 39 39 40 40 40 38 38 40 42 41 40 40 42 44 47 52 56 57 53 46 42 42 42 41 39 42 46 47 46 45 45 46 46 46 44 40 36 33 33 34 34 34 34 33 33 32 32 30 30 29 28 28 28 27 26 24 21 18 17 17 19 21 23 25 28 30 34 37 35 29 22 18 17 17 16 16 18
28 30 32 34 37 38 38 38 38 39 39 39 38 36 34 36 39 40 38 37 38 40 42 47 52 55 54 49 46 45 46 43 40 39 42 44 43 42 41 41 41 39 36 34 33 33 34 34 33 34 33 31 30 30 29 28 28 27 27 27 26 25 22 19 17 16 16 16 18 20 22 24 26 28 32 34 30 23 18 16 15 15 15 16 17
28 30 33 36 38 38 35 32 31 32 33 34 33 32 31 32 35 36 35 34 34 35 38 41 45 50 54 54 51 48 45 43 41 41 41 42 42 43 44 43 41 37 35 34 34 36 35 33 33 33 32 30 30 29 28 27 27 26 26 25 23 20 18 17 16 15 15 15 17 19 20 22 24 26 29 31 27 20 16 15 14 14 15 16 15
28 31 33 37 38 34 27 23 23 24 25 27 28 26 26 29 31 32 32 31 31 32 34 35 38 45 52 56 55 50 45 43 43 44 44 43 42 42 43 42 40 40 39 38 38 39 37 35 34 33 31 30 29 28 27 26 26 25 24 22 19 18 17 16 15 14 14 15 16 17 18 21 23 24 26 28 26 20 16 15 14 14 14 13 13
27 29 32 36 36 29 20 17 17 18 19 21 22 22 23 26 27 27 28 28 28 30 31 31 33 38 46 54 58 52 44 44 48 49 46 44 42 41 42 42 43 44 44 44 44 42 39 36 33 32 30 29 28 27 26 25 25 23 21 19 17 18 17 16 14 13 14 14 15 16 18 20 22 23 24 26 26 22 18 15 14 14 12 11 12
25 26 30 35 34 25 16 13 13 12 13 15 18 20 21 22 22 22 23 24 26 27 28 30 32 34 38 48 57 55 46 43 46 50 50 48 46 45 45 46 47 48 49 49 48 45 41 36 33 31 30 29 27 26 25 24 23 21 19 18 18 18 17 15 14 13 13 13 14 15 17 19 21 22 23 24 26 25 22 17 14 13 11 10 11
23 23 27 33 33 25 14 10 9 8 10 12 16 19 19 19 18 18 19 20 21 21 22 24 29 33 35 40 47 51 50 48 48 49 50 52 53 53 52 51 51 52 53 52 49 44 39 35 32 30 29 27 25 24 24 22 20 19 19 19 19 18 17 15 14 13 13 13 13 15 17 19 20 21 22 23 24 25 25 22 17 14 12 12 13
21 21 24 29 32 26 15 7 4 3 6 12 16 17 17 17 16 16 16 17 18 18 18 20 24 29 32 33 35 38 43 47 48 45 41 41 46 51 53 52 51 51 51 49 45 40 36 32 30 28 27 25 24 23 22 20 19 19 19 19 19 18 16 15 14 14 12 12 13 15 16 18 20 20 21 22 23 24 25 25 23 18 15 15 15
19 20 22 25 30 29 20 9 2 2 4 9 15 17 17 18 18 18 18 19 20 21 22 23 23 24 27 30 33 35 36 39 42 42 38 35 35 38 39 40 40 40 40 40 38 34 31 29 27 25 24 23 22 21 20 19 20 20 20 19 19 17 16 15 15 14 12 12 13 15 16 18 19 20 20 21 22 22 23 25 25 23 19 16 16
17 19 20 21 25 28 24 15 6 4 4 5 9 13 15 17 18 18 19 19 20 21 22 22 23 25 27 30 32 34 34 34 36 38 38 34 30 29 30 31 31 30 30 30 28 27 26 25 24 22 22 22 21 21 20 20 20 20 20 19 18 17 16 15 15 14 13 13 14 16 17 18 19 19 20 21 21 21 22 23 25 26 24 19 16
15 17 19 19 21 24 25 22 14 7 5 5 6 8 10 12 13 14 15 16 17 18 20 20 20 23 27 31 33 34 33 31 31 32 31 28 25 26 27 28 26 24 23 23 22 22 22 22 21 21 22 22 21 21 21 21 20 20 19 19 18 17 16 16 15 14 13 14 15 16 17 18 19 19 19 20 21 21 21 22 23 25 26 24 19
14 15 16 17 18 19 22 22 20 15 9 6 5 6 8 9 11 11 13 14 16 17 17 17 15 14 19 27 32 31 28 27 27 27 25 22 20 21 22 21 21 21 22 21 21 21 21 21 21 22 22 22 22 21 21 20 20 19 19 19 18 17 16 15 15 14 14 15 16 17 17 18 18 19 19 20 20 20 21 21 21 23 25 26 23
15 14 14 15 16 17 18 18 18 17 15 13 11 10 9 8 8 8 10 13 15 14 14 13 11 11 15 23 26 23 21 21 23 22 20 18 17 18 18 19 20 21 22 21 20 20 20 21 22 23 23 22 22 21 20 19 19 19 19 19 18 17 16 15 15 15 15 16 16 17 17 18 18 18 19 19 20 20 20 20 20 21 23 25 25
17 15 14 13 14 14 15 15 15 14 14 14 14 14 14 14 14 12 12 12 11 11 10 10 9 9 12 17 20 19 18 18 17 17 17 17 17 17 18 19 21 21 21 20 21 21 22 23 23 23 22 21 20 19 19 18 18 18 18 18 17 16 16 16 16 16 16 17 17 17 17 17 18 18 19 20 20 20 20 20 20 19 20 22 24
17 17 16 15 13 12 12 13 13 12 12 12 12 11 11 12 12 12 11 10 10 10 11 10 9 9 10 12 15 17 16 15 16 17 18 17 15 15 16 19 20 21 20 21 22 23 24 24 23 22 21 19 18 18 18 18 18 18 18 18 17 17 17 17 17 17 17 17 17 17 17 17 17 18 19 20 20 20 20 20 19 19 19 19 21
Wind_Direction
254 257 254 249 246 246 248 252 256 261 265 270 276 278 279 277 275 275 275 275 272 273 278 284 283 271 260 254 254 257 260 266 273 280 285 287 288 289 288 286 285 284 282 280 277 275 272 271 269 267 265 263 260 258 257 258 260 262 264 265 267 267 267 267 267 266 267 267 267 268 270 271 273 274 275 276 278 279 278 278 277 276 275 275 275
250 248 245 245 246 247 248 249 252 257 258 264 270 274 276 275 275 276 277 277 276 274 273 276 281 274 258 249 249 252 254 260 267 275 280 284 285 284 282 280 279 278 276 274 270 268 265 264 263 262 262 261 259 258 258 259 261 262 263 265 266 268 269 270 270 269 268 268 267 266 266 267 268 270 273 274 276 277 278 279 279 278 277 275 274
246 243 242 245 248 250 253 253 254 255 256 261 263 265 270 271 273 276 278 279 277 276 273 267 264 265 261 257 256 255 255 258 261 264 269 275 278 279 279 278 276 274 273 271 268 266 264 261 259 258 257 257 258 259 260 262 264 265 266 268 269 271 272 272 271 270 269 269 268 267 267 267 267 268 270 271 273 274 275 277 278 278 279 278 276
242 241 241 245 249 254 258 259 258 255 254 257 259 261 264 267 271 273 275 278 279 278 275 268 263 262 262 264 264 264 263 263 262 260 260 263 267 270 272 272 271 271 271 270 270 268 267 265 262 260 258 256 256 258 260 263 265 266 268 270 273 274 276 276 275 273 272 271 271 271 270 270 270 269 269 270 270 272 273 274 275 276 276 276 276
241 242 244 247 250 256 260 261 261 257 253 254 255 256 258 262 266 267 269 273 276 277 273 271 271 270 268 267 266 266 265 264 262 261 260 259 260 263 265 265 266 266 266 266 266 265 265 265 264 263 261 259 258 259 263 267 270 272 274 276 278 279 280 279 278 276 276 276 276 275 274 272 271 270 270 270 270 272 273 274 274 274 274 274 274
243 244 247 250 253 255 258 260 261 258 253 249 249 250 252 255 259 261 264 266 269 271 269 268 273 280 281 277 272 268 266 264 263 262 260 259 257 258 259 261 262 262 262 262 261 261 261 261 261 261 261 261 261 262 265 269 271 272 275 277 279 281 282 282 280 279 278 278 278 277 275 274 272 270 270 272 272 274 276 277 276 275 274 273 273
244 247 250 252 252 251 252 256 257 255 251 246 245 247 249 251 255 260 264 264 265 265 265 268 275 282 287 287 282 277 272 269 267 265 262 259 257 255 255 255 257 257 258 257 256 256 256 256 256 257 258 260 261 263 265 267 268 268 270 272 274 277 280 281 282 281 279 277 276 275 274 273 272 272 271 272 273 274 276 278 279 278 277 275 274
245 248 252 253 251 250 251 254 255 254 251 248 247 248 250 252 255 259 264 267 269 269 270 273 277 281 284 284 283 280 277 275 274 273 269 263 258 255 253 253 254 255 256 256 255 254 253 253 253 254 256 258 260 263 264 264 264 265 268 271 273 275 277 279 280 280 278 276 273 272 273 272 272 273 273 273 274 275 277 279 280 280 279 277 275
248 250 252 254 254 256 258 259 259 258 256 255 254 254 255 257 259 262 266 269 272 273 275 277 279 281 282 282 281 279 277 277 277 280 280 273 264 258 255 254 254 255 256 255 254 253 252 252 254 255 257 259 261 263 264 264 265 265 268 270 271 273 275 276 278 278 277 276 274 272 272 273 273 273 274 275 276 277 278 279 280 281 280 279 277
249 251 254 256 258 260 263 264 264 263 262 262 262 262 261 262 263 265 267 269 271 272 273 275 277 279 280 280 278 276 275 275 275 277 280 278 269 260 256 255 254 254 254 255 255 255 255 255 257 257 258 259 260 261 263 265 265 266 268 270 271 272 273 274 275 275 275 275 274 274 273 273 274 274 274 274 275 276 277 278 279 280 280 280 280
252 253 255 257 259 261 263 265 266 267 267 267 267 267 266 266 267 267 267 268 269 269 270 271 273 275 276 276 275 273 272 272 273 274 275 274 271 263 255 252 253 253 253 254 254 256 258 259 258 258 258 258 259 261 263 266 269 271 272 273 273 274 274 274 274 274 274 273 272 272 272 273 273 273 273 274 274 274 275 276 277 278 278 279 279
257 257 257 258 259 260 261 263 265 266 267 268 268 268 268 268 268 268 268 268 269 269 270 271 271 272 272 272 272 270 269 269 270 270 270 269 269 265 256 248 248 249 249 250 252 256 259 259 257 258 259 259 260 262 265 268 271 274 275 274 275 276 277 277 277 277 277 276 276 275 274 274 273 273 273 274 274 274 275 276 276 277 277 277 278
258 259 259 259 260 261 261 262 264 265 266 267 267 267 267 267 267 267 268 268 268 269 269 270 270 270 270 268 268 267 266 265 264 264 265 264 264 265 260 250 246 248 249 251 254 256 257 257 257 257 258 258 260 263 265 268 270 271 272 273 275 276 277 278 278 278 278 277 277 277 276 276 276 276 276 276 276 277 277 277 278 278 278 278 279
261 261 261 261 262 263 264 265 266 267 267 267 267 267 266 266 266 267 267 267 267 266 266 266 267 268 268 267 266 266 264 262 260 260 262 262 260 260 260 254 251 253 256 258 259 258 258 259 260 259 258 259 262 265 266 267 268 269 271 272 273 274 275 276 277 277 277 276 276 276 277 278 278 278 279 279 279 279 279 279 280 280 281 281 282
264 264 264 265 266 268 269 270 270 270 270 270 269 268 267 267 268 268 269 268 267 266 265 265 265 265 266 265 266 266 264 261 259 259 260 260 258 257 258 257 254 255 259 263 262 258 257 260 261 261 262 265 268 269 268 268 268 269 270 271 272 274 275 276 277 277 278 278 278 278 278 279 279 279 279 279 279 279 279 280 280 280 280 281 282
264 265 266 268 270 271 272 272 272 272 272 272 271 269 269 270 270 271 271 270 268 266 264 264 264 264 264 264 264 264 263 261 260 259 258 258 258 257 257 255 253 254 259 261 259 257 258 260 262 264 266 269 270 270 269 268 267 267 269 271 274 276 279 280 281 281 281 281 281 281 281 281 281 281 281 281 280 280 280 280 280 280 280 280 280
268 268 269 270 271 271 271 271 272 272 272 272 271 271 271 271 271 272 271 269 267 266 265 265 264 263 263 263 263 262 262 260 259 258 258 258 258 257 256 254 251 252 254 255 254 257 261 264 265 266 267 267 267 267 266 266 266 267 269 272 276 280 283 285 285 285 284 284 284 283 283 283 283 283 283 283 283 283 282 282 281 281 281 280 281
269 270 270 271 271 271 270 270 270 270 271 271 271 270 270 270 270 271 270 268 267 266 266 265 264 263 262 262 261 260 260 259 258 257 256 256 257 256 255 253 250 249 250 253 256 260 264 265 266 266 266 265 265 265 265 266 267 268 270 274 278 281 284 287 287 287 286 285 285 285 285 285 285 285 285 285 284 284 283 283 282 282 282 282 282
270 271 271 272 272 272 272 271 271 270 270 270 269 269 269 269 269 268 267 266 266 266 265 264 263 262 261 260 260 259 258 258 257 255 254 254 255 255 254 252 251 251 253 256 260 262 263 264 264 264 264 265 265 265 265 266 268 269 272 275 279 282 286 288 288 288 287 286 286 286 287 287 287 286 286 285 285 284 284 283 283 283 283 283 283
272 273 273 274 274 274 274 273 273 272 272 271 270 269 268 267 266 265 264 264 265 266 265 264 263 261 259 258 257 257 257 256 255 254 253 253 254 256 255 254 253 254 256 259 261 263 264 263 263 263 264 265 265 265 266 266 267 270 273 276 279 283 287 289 288 287 287 287 287 288 288 288 287 287 286 285 284 283 283 283 283 283 282 282 282
272 273 274 274 274 275 274 274 274 274 273 272 271 269 268 266 265 263 262 262 263 262 263 263 263 260 258 257 257 256 256 255 254 254 254 254 254 256 257 258 258 258 259 261 262 263 263 263 263 263 263 263 263 263 264 266 268 271 274 277 281 286 288 288 288 288 288 289 289 289 289 288 287 286 285 284 283 283 282 282 281 281 281 280 281
271 272 272 273 274 274 274 274 274 274 274 273 272 271 269 267 265 263 262 261 259 257 256 257 258 258 257 257 256 256 256 255 254 253 254 254 255 255 257 258 260 261 262 262 262 262 262 262 263 263 263 263 263 264 266 268 271 274 277 281 285 287 288 288 288 289 289 289 289 289 288 287 286 285 284 283 283 282 282 281 280 280 280 280 281
270 270 271 271 272 272 272 272 272 272 272 272 271 271 270 268 266 264 262 261 259 256 254 253 254 256 258 258 258 257 257 255 253 253 254 255 256 258 259 259 259 260 261 261 261 261 261 261 261 261 262 263 264 266 268 271 274 279 282 284 286 286 287 288 289 289 289 289 288 287 286 285 284 284 283 283 282 281 281 280 280 281 281 282 283
269 269 270 270 270 270 270 271 271 270 270 270 270 270 269 269 268 266 264 262 260 257 255 254 253 254 256 257 257 256 255 253 253 255 258 258 258 259 260 258 258 258 258 260 261 260 260 261 261 261 262 263 265 267 270 274 279 284 285 285 286 287 288 289 289 288 287 287 286 285 284 284 283 283 283 282 282 281 281 281 282 282 283 285 286
269 269 269 269 269 269 269 269 269 269 269 268 268 267 267 267 266 266 264 262 260 258 256 255 254 254 254 254 255 255 253 251 252 256 259 257 255 256 256 256 257 258 259 261 263 261 261 261 261 262 263 263 265 269 273 278 283 286 286 286 287 287 288 287 287 286 285 284 284 283 283 283 283 283 283 284 284 284 284 284 284 285 286 287 287
268 269 269 269 270 270 269 268 267 266 266 265 265 264 264 264 263 263 263 261 259 257 255 255 255 254 254 254 254 254 253 252 253 257 257 253 252 254 256 256 258 259 260 262 262 260 260 260 261 262 263 264 267 272 276 281 285 287 286 286 286 286 286 285 284 284 283 283 283 283 283 284 284 284 285 285 285 285 285 286 286 287 287 287 287
270 269 269 269 269 269 269 268 268 266 265 263 262 261 261 261 260 260 260 259 258 256 255 254 254 255 255 255 254 253 253 254 255 256 254 252 253 255 256 259 260 259 258 258 257 255 255 257 260 262 264 266 270 274 278 282 285 286 286 285 285 285 284 283 282 282 282 282 283 283 284 285 285 286 286 286 286 286 286 287 287 287 287 287 288
271 270 269 268 268 267 267 266 266 266 265 264 262 260 258 258 258 257 257 256 255 254 252 250 251 252 254 255 254 252 252 252 252 250 248 248 250 254 257 260 259 255 253 253 252 251 253 256 260 263 265 268 272 276 280 283 285 285 284 284 283 283 282 281 281 281 281 282 283 283 284 284 285 285 285 285 285 286 286 287 287 287 288 290 292
273 272 271 269 268 267 266 265 264 263 263 262 261 260 258 256 255 255 254 253 253 252 250 248 248 250 252 253 253 251 251 250 248 247 247 249 251 254 257 256 252 249 249 251 252 254 257 261 264 267 270 273 276 279 282 283 283 283 282 282 282 281 280 280 280 281 282 282 282 283 283 284 284 284 285 285 286 286 287 287 288 290 292 294 294
276 275 273 272 270 269 267 266 265 263 262 261 260 259 258 256 254 252 251 251 251 250 248 245 242 241 243 247 247 247 247 248 247 248 251 253 253 253 252 249 248 249 252 255 257 260 263 266 269 272 274 277 279 281 282 282 281 281 280 280 280 280 280 280 281 281 281 281 281 282 283 283 284 284 285 286 287 288 289 290 292 294 295 295 294
275 274 273 272 271 269 268 266 265 264 262 261 260 259 257 256 255 252 250 249 248 247 246 243 238 233 232 236 239 242 244 246 247 249 253 252 249 249 249 249 250 253 256 258 260 263 265 268 272 275 278 279 280 280 280 279 279 278 278 278 279 279 280 280 280 279 279 280 281 282 283 284 285 286 287 288 289 290 291 293 295 296 295 294 293
274 274 273 273 272 271 270 268 266 264 263 261 260 258 256 255 253 252 250 248 246 245 245 243 239 235 232 232 235 239 244 247 249 249 249 249 248 248 250 250 251 253 255 258 261 265 269 273 276 278 279 279 278 278 278 277 277 277 277 278 278 279 279 277 277 277 279 280 281 283 284 285 286 287 288 289 291 292 294 296 297 297 295 294 293
278 277 276 275 274 273 272 271 269 268 266 263 261 259 257 255 253 251 249 247 244 242 242 242 240 238 235 234 235 237 240 243 245 245 245 247 249 250 251 251 251 253 256 260 265 269 273 275 277 277 276 275 275 275 276 276 276 277 277 278 278 277 276 275 275 277 278 281 283 284 284 285 286 289 291 293 295 297 299 300 299 297 294 292 293
281 282 281 280 278 276 274 271 269 267 267 266 263 261 258 256 253 251 249 246 243 241 239 238 239 239 238 237 237 237 237 238 241 244 245 246 249 251 253 253 255 259 262 265 268 271 273 274 274 273 272 273 273 273 274 275 275 276 277 277 276 274 273 273 274 277 279 282 282 281 282 285 289 293 297 299 300 302 303 303 299 294 291 292 294
289 290 290 289 287 284 280 276 270 266 264 264 264 262 258 256 254 252 249 246 243 240 237 235 235 236 239 240 240 239 239 239 242 246 249 250 251 252 253 255 258 260 262 264 267 269 270 272 273 272 272 272 272 272 272 274 274 275 275 274 273 271 271 272 275 278 279 278 277 279 284 291 296 300 303 305 306 307 306 302 297 291 290 293 298
292 293 293 293 292 290 286 281 275 269 264 261 261 260 258 254 252 251 249 246 242 238 235 232 229 229 231 235 238 241 241 241 242 245 249 252 253 253 254 255 256 257 258 260 262 263 265 269 271 272 271 272 272 272 272 272 272 273 272 271 269 269 270 273 276 276 273 271 276 284 292 297 303 308 311 312 312 311 307 300 295 293 292 297 304
294 295 296 296 295 293 288 283 276 270 264 260 257 257 256 252 248 247 247 246 243 239 235 231 227 225 223 223 226 231 234 234 234 237 242 245 248 251 252 251 251 252 254 254 254 257 264 267 268 268 269 271 272 271 270 270 270 269 267 266 266 267 270 273 270 265 264 271 282 291 298 303 309 315 319 319 317 312 306 301 299 297 298 303 309
299 300 300 301 301 299 293 284 275 267 261 256 253 253 252 248 243 241 242 244 243 241 237 231 227 224 220 216 217 222 226 225 224 228 235 240 242 243 245 246 249 251 247 244 250 262 268 267 265 266 268 269 270 269 268 267 266 265 263 263 265 268 268 264 256 255 264 277 288 296 303 309 314 322 326 326 322 315 309 306 303 302 304 309 312
306 307 307 308 309 306 297 285 274 265 258 252 250 250 248 242 237 237 240 242 242 240 236 231 227 222 217 213 212 216 219 219 219 221 227 234 238 240 242 246 249 245 237 240 257 271 271 266 263 264 266 267 267 266 265 264 262 261 261 263 265 264 258 249 246 254 268 281 291 301 309 314 319 326 333 335 330 322 315 311 308 306 308 311 315
313 313 314 318 319 314 300 282 271 264 255 248 246 245 240 232 229 231 236 239 238 236 233 228 224 221 217 213 211 212 212 212 213 216 221 228 234 240 243 245 243 238 238 250 266 272 269 265 263 262 262 263 263 262 261 261 260 260 261 261 258 250 243 240 245 257 270 283 296 307 315 320 323 329 337 342 341 334 323 315 312 310 309 311 317
319 321 325 330 331 323 303 279 268 261 251 244 240 235 226 219 221 227 232 234 233 232 229 223 219 219 217 215 214 215 216 218 218 218 221 227 234 240 243 242 239 239 245 257 266 267 265 264 261 259 259 260 259 259 259 259 259 259 257 252 243 237 235 237 245 258 271 286 300 311 320 324 325 329 338 346 350 348 337 323 313 310 309 312 320
324 329 336 343 343 334 310 282 267 256 246 237 227 218 211 210 215 223 227 228 229 228 226 220 217 217 218 216 215 216 219 222 224 225 227 229 233 237 240 240 241 244 250 258 262 263 263 261 258 255 255 256 256 257 257 256 255 252 246 238 232 230 231 236 246 259 273 288 302 314 322 326 327 330 337 347 353 355 350 338 322 311 306 309 317
331 338 347 353 355 350 329 296 274 254 238 224 212 203 200 202 207 213 218 221 220 221 223 223 220 217 218 218 217 218 221 225 227 231 234 236 236 237 239 241 245 249 253 256 259 259 259 256 252 250 251 252 254 254 253 250 246 239 233 230 228 228 230 237 248 259 273 289 303 314 322 326 328 332 337 344 351 356 356 350 339 322 307 302 306
339 346 353 0 4 4 355 327 295 251 218 205 197 192 191 194 199 205 212 213 210 208 215 225 226 222 219 214 209 211 220 225 226 228 233 237 238 238 239 242 247 250 252 253 254 254 252 248 245 245 248 249 249 247 244 238 232 228 227 227 226 226 231 239 249 260 275 291 304 314 320 325 328 332 337 341 347 353 357 356 351 339 321 305 300
349 354 359 6 13 16 14 9 21 114 176 191 191 189 190 192 197 204 209 211 210 209 211 219 224 220 212 205 200 202 210 218 219 218 220 227 232 235 238 241 245 247 248 248 247 245 242 240 240 242 243 242 240 237 232 226 223 225 226 225 225 227 233 241 250 263 277 292 305 313 318 322 327 331 336 340 343 349 354 357 356 351 341 323 307
356 1 5 11 19 24 26 27 43 90 120 158 183 194 200 203 207 212 213 214 215 214 214 218 221 215 205 201 200 201 204 207 209 210 213 220 228 234 238 241 244 245 244 242 238 235 233 234 235 235 234 232 229 225 221 220 222 224 225 225 226 229 235 243 252 265 279 292 302 309 315 320 324 329 335 338 340 344 350 354 357 357 353 344 327
1 6 10 16 24 30 34 37 43 62 101 132 157 180 194 200 205 209 210 210 212 213 213 213 214 213 210 205 199 195 195 197 199 203 210 219 230 237 239 240 240 239 238 233 227 224 226 228 227 226 224 221 219 217 218 220 223 224 225 227 228 230 235 243 253 265 278 289 298 304 311 317 321 327 332 336 338 341 345 350 354 357 358 355 348
8 10 15 21 29 35 39 43 48 55 66 92 131 161 180 191 196 200 203 204 204 203 200 195 191 198 205 202 195 191 191 195 198 204 212 221 229 233 233 230 228 229 229 225 220 219 221 220 219 218 216 215 215 217 220 222 224 226 227 229 229 231 236 244 254 265 276 285 292 299 306 313 319 324 329 332 335 338 342 346 350 355 358 359 357
17 17 17 23 32 38 43 47 52 58 64 72 83 97 110 125 145 163 175 182 183 181 177 172 168 175 188 191 190 190 194 197 199 203 208 213 218 222 223 223 223 223 221 217 215 216 216 215 214 214 213 214 217 221 223 226 228 229 229 231 232 234 239 246 255 264 272 280 286 293 300 308 315 320 325 328 331 336 340 342 346 351 356 359 360
23 24 23 25 31 37 44 50 56 63 71 78 83 90 95 99 105 116 133 148 157 162 165 165 165 171 180 184 184 186 191 196 199 201 204 209 215 222 224 223 220 217 214 214 215 215 214 213 213 214 215 217 221 224 227 230 232 233 233 235 236 238 242 249 257 263 270 275 282 288 294 302 310 316 321 325 328 332 336 339 342 347 353 357 359
27 28 29 30 32 36 42 50 57 65 75 84 89 95 102 109 114 121 132 142 154 168 180 184 185 186 188 187 186 188 193 199 201 201 204 212 221 225 223 219 216 214 215 217 216 214 212 212 213 215 217 221 224 227 230 233 236 237 238 240 242 243 247 252 257 263 268 272 277 283 290 298 306 313 318 322 324 327 330 334 338 343 348 353 356